Regional Weather Roundup
Issued by NWS Grand Forks, ND

Home | Current Version | Previous Version | Graphics & Text | Print | Product List | Glossary On
Versions: 1 2 3 4 5 6 7 8 9 10 11 12 13 14 15 16 17 18 19 20 21 22 23 24 25 26 27 28 29 30 31 32 33 34 35 36 37 38 39 40 41 42 43 44 45 46 47 48 49 50
000
ASUS43 KFGF 221831
RWRFGF
PRAIRIE TO PINES  WEATHER ROUNDUP
NATIONAL WEATHER SERVICE EASTERN NORTH DAKOTA/GRAND FORKS ND
100 PM CDT SUN OCT 22 2017

 **SATELLITE DATA USED TO AUGMENT SKY COVER AT AUTOMATED STATIONS**
 *****  WEATHER ACROSS EASTERN NORTH DAKOTA  *****

CITY           SKY/WX    TMP DP  RH WIND       PRES   REMARKS
GRAND FORKS    FAIR      62  32  32 SW22G30   29.77F
6HR MIN TEMP:  42; 6HR MAX TEMP:  62;

GRAND FRKS AFB FAIR      61  28  29 SW16      29.77F
DEVILS LAKE    FAIR      56  32  40 SW16      29.74F
6HR MIN TEMP:  39; 6HR MAX TEMP:  56;

FARGO          FAIR      61  32  33 SW18      29.85F
WAHPETON ARPT  NOT AVBL
$$

 ***** WEATHER ACROSS CENTRAL AND WESTERN NORTH DAKOTA  *****

CITY           SKY/WX    TMP DP  RH WIND       PRES   REMARKS
BISMARCK       CLOUDY    59  27  29 SW20G26   29.77F
6HR MIN TEMP:  30; 6HR MAX TEMP:  59;

MINOT          CLOUDY    52  27  38 S9        29.68F
6HR MIN TEMP:  38; 6HR MAX TEMP:  52;

JAMESTOWN      FAIR      60  23  24 SW21      29.79F
6HR MIN TEMP:  36; 6HR MAX TEMP:  61;

MINOT AFB      FAIR      51  27  39 SW17      29.65F
GARRISON         N/A     52  26  36 SW13      29.71F
WILLISTON      CLOUDY    48  29  47 SW12      29.66F
6HR MIN TEMP:  29; 6HR MAX TEMP:  48; 6HR PCP: TRACE;

DICKINSON      CLOUDY    59  29  31 W22G35    29.71F
6HR MIN TEMP:  31; 6HR MAX TEMP:  61; 6HR PCP: TRACE;

HETTINGER      CLOUDY    57  22  25 SW16      29.81F
6HR MIN TEMP:  26; 6HR MAX TEMP:  57;

$$

 *****  OTHER AIRPORT OBSERVATIONS IN OUR AREA  *****

CITY           SKY/WX    TMP DP  RH WIND       PRES   REMARKS
WALHALLA       FAIR     N/A N/A N/A SW12G24   29.69F
GRAFTON AIRPOR NOT AVBL
VALLEY CITY AR NOT AVBL
CANDO          FAIR      57  27  30 SW15      29.71F
CAVALIER APRT  FAIR      59  32  36 S16G23    29.71F
GWINNER        CLEAR     61  28  29 SW18G26   29.86F
SHEYENNE NWR     N/A     62  31  31 SW16      29.95S
ROLLA          FAIR      48  30  49 SW14      29.67F
 ***** THE ABOVE OBSERVATIONS ARE NON NWS ARE NOT QUALITY
       CONTROLLED AND MAY MIS-REPORT RAIN FOR SNOW...
$$

  *****  WEATHER ACROSS NORTHERN MINNESOTA  *****

CITY           SKY/WX    TMP DP  RH WIND       PRES   REMARKS
FLAG ISLAND    FAIR      52  30  43 W22G33    29.68F
WARROAD        FAIR      55  36  47 W17G25    29.74S
ROSEAU         FAIR      55  36  47 SW15G23   29.73F
HALLOCK        FAIR      59  30  33 SW17      29.72F
THF RVR FALLS  FAIR      58  30  34 SW18G26   29.79F
6HR MIN TEMP:  40; 6HR MAX TEMP:  58;

BAUDETTE       FAIR      55  33  43 W15G35    29.75S
6HR MIN TEMP:  44; 6HR MAX TEMP:  55;

WASKISH        FAIR      55  37  50 SW16G24   29.80F
CROOKSTON      FAIR      63  30  29 SW23      29.79F
STEPHEN NDAWN    N/A     59  32  36 SW15        N/A
GREENBUSH NDAW   N/A     57  34  41 SW15        N/A
$$
  *****  WEATHER ACROSS CENTRAL AND WEST MINNESOTA  *****

CITY           SKY/WX    TMP DP  RH WIND       PRES   REMARKS
FOSSTON        FAIR      57  28  33 SW18G24   29.83F
BEMIDJI        FAIR      56  31  39 W16       29.84F
6HR MIN TEMP:  41; 6HR MAX TEMP:  55;

PARK RAPIDS    FAIR      58  32  37 W21G30    29.88F
6HR MIN TEMP:  39; 6HR MAX TEMP:  58;

ELBOW LAKE     FAIR      60  33  36 SW12G17   29.92F
6HR MIN TEMP:  36; 6HR MAX TEMP:  59;

WADENA         FAIR      57  34  41 SW14      29.90F
DETROIT LAKES  FAIR      55  32  41 SW9G18    29.88F
MOORHEAD       FAIR      61  28  29 SW17G23   29.85F
FERGUS FALLS   FAIR      61  32  33 SW20      29.90F
MORRIS MN      FAIR      63  34  34 W13G22    29.93F
STAPLES        FAIR      59  28  31 W13G20    29.91F
$$
  *****  WEATHER ELSEWHERE ACROSS MINNESOTA  *****

CITY           SKY/WX    TMP DP  RH WIND       PRES   REMARKS
DULUTH         FAIR      54  38  54 W14G24    29.88F
6HR MIN TEMP:  45; 6HR MAX TEMP:  54;

INTRNTL FALLS  FAIR      56  34  43 W18G31    29.77S
6HR MIN TEMP:  42; 6HR MAX TEMP:  56;

ELY            FAIR      54  36  50 W21G28    29.81F
CLOQUET        FAIR      57  30  35 W14       29.89S
WHEATON        FAIR      63  27  25 SW18      29.92F
BRAINERD       FAIR      59  30  33 W16G26    29.93S
HIBBING        FAIR      54  32  43 W14G22    29.86F
6HR MIN TEMP:  43; 6HR MAX TEMP:  54;

ALEXANDRIA     FAIR      57  36  45 SW13      29.96F
6HR MIN TEMP:  40; 6HR MAX TEMP:  58;

SAINT CLOUD    FAIR      59  36  42 W15       29.96F
6HR MIN TEMP:  42; 6HR MAX TEMP:  59;

MINNEAPOLIS    FAIR      60  40  47 W13       29.98F
6HR MIN TEMP:  48; 6HR MAX TEMP:  60;

$$

  *****  WEATHER ACROSS SOUTH DAKOTA  *****

CITY           SKY/WX    TMP DP  RH WIND       PRES   REMARKS
SIOUX FALLS    FAIR      62  35  36 SW12G18   30.02F
6HR MIN TEMP:  38; 6HR MAX TEMP:  62;

BROOKINGS      FAIR      61  30  31 SW16      29.98F
WATERTOWN      FAIR      60  29  30 SW21G28   29.94F
6HR MIN TEMP:  32; 6HR MAX TEMP:  60;

HURON          FAIR      63  32  31 S22G29    29.94F
6HR MIN TEMP:  36; 6HR MAX TEMP:  64;

SISSETON         N/A     63  29  27 SW22      29.91F
ABERDEEN       FAIR      64  31  28 SW20G29   29.90F
6HR MIN TEMP:  29; 6HR MAX TEMP:  64;

MITCHELL       FAIR      64  32  30 S18       29.97F
PIERRE         FAIR      57  31  37 SW8       29.89F
6HR MIN TEMP:  34; 6HR MAX TEMP:  57;

MOBRIDGE       FAIR      63  30  28 S16G25    29.83F
RAPID CITY     FAIR      64  23  21 SE10      29.90F
6HR MIN TEMP:  25; 6HR MAX TEMP:  64;

$$

  *****  SOME WEATHER IN NEARBY STATES *****

CITY           SKY/WX    TMP DP  RH WIND       PRES   REMARKS
GLASGOW MT     CLOUDY    55  41  59 SW9       29.60F
6HR MIN TEMP:  34; 6HR MAX TEMP:  55; 6HR PCP: TRACE;

GREAT FALLS MT FAIR      59  34  39 SW33G49   29.75R
6HR MIN TEMP:  50; 6HR MAX TEMP:  60;

CHEYENNE WY    FAIR      58  24  27 W31G38    30.15F
6HR MIN TEMP:  43; 6HR MAX TEMP:  58;

SCOTTSBLUFF NE FAIR      66  28  24 W26G35    30.06F
6HR MIN TEMP:  31; 6HR MAX TEMP:  66;

OMAHA NE       FAIR      65  32  29 SW9       30.10F
6HR MIN TEMP:  42; 6HR MAX TEMP:  66;

DES MOINES IA  FAIR      62  41  46 NW9       30.07F
6HR MIN TEMP:  50; 6HR MAX TEMP:  62;

DAVENPORT IA   CLOUDY    52  48  86 N9        30.04F
6HR MIN TEMP:  51; 6HR MAX TEMP:  54; 6HR PCP:  0.07;

CHICAGO IL     CLOUDY    68  61  78 S15       29.91F
6HR MIN TEMP:  65; 6HR MAX TEMP:  68; 6HR PCP:  0.05;

EAU CLAIRE WI  FAIR      53  42  66 W8        29.98F
6HR MIN TEMP:  49; 6HR MAX TEMP:  53;

LA CROSSE WI   CLOUDY    55  45  68 NW8       30.00F
6HR MIN TEMP:  52; 6HR MAX TEMP:  55; 6HR PCP: TRACE;

$$

  *****  SOME NATIONAL WEATHER *****

CITY           SKY/WX    TMP DP  RH WIND       PRES   REMARKS
LA GUARDIA NY  PTSUNNY   74  42  31 S8        30.37F
6HR MIN TEMP:  60; 6HR MAX TEMP:  76;

RALEIGH NC     FAIR      76  56  49 CALM      30.31F
6HR MIN TEMP:  51; 6HR MAX TEMP:  77;

ATLANTA GA     PTSUNNY   76  65  68 SE9       30.19F
6HR MIN TEMP:  59; 6HR MAX TEMP:  77;

NEW ORLEANS LA PTSUNNY   67  64  90 NW16G29   30.07F
6HR MIN TEMP:  65; 6HR MAX TEMP:  83; 6HR PCP:  0.24;

OKLAHOMA CITY  FAIR      63  42  46 NW12      30.23S
6HR MIN TEMP:  50; 6HR MAX TEMP:  63;

ALBUQUERQUE NM FAIR      57   8  14 N3        30.44R
6HR MIN TEMP:  37; 6HR MAX TEMP:  58;

SALT LAKE CITY PTSUNNY   60  21  22 SE13      30.37S
6HR MIN TEMP:  48; 6HR MAX TEMP:  61;

LOS ANGELES CA FAIR      85  31  14 VRB3      30.12F
6HR MIN TEMP:  61; 6HR M


USA.gov is the U.S. government's official web portal to all federal, state and local government web resources and services.